Location: M?digepalle
(16.1753°N, 80.3496°E)
Time: 08:30:02
(UTC+00:00)

Cosmos 2297 Rocket - Pass Details

Date: 29 October 2020
Orbit: 838 x 845 km, 71.0° (Epoch: 27 November)

Event Time Altitude Azimuth Distance (km) Brightness Sun altitude
Rises 14:17:48 0° 324° (NW) 3,394 5.7 -31.1°
Reaches altitude 10° 14:20:36 10° 313° (NW) 2,457 5.0 -31.8°
Maximum altitude 14:25:13 26° 257° (WSW) 1,582 4.1 -32.9°
Drops below altitude 10° 14:29:50 10° 202° (SSW) 2,451 4.9 -34.0°
Sets 14:32:38 0° 189° (S) 3,383 5.5 -34.7°
